When you browse on this site, cookies collect data to enhance your experience and personalize the content and advertising you see.
Visit our Privacy Policy to learn more. By continuing to use the site, you agree to this use of cookies and data.

Previsão horária em Abapo

Hoje, 22 Setembro, Terça-feira

Tempo Temperatura Precipitação Vento Pressão Humidade
00:00 +19°C° 0 mm 1 m/s 715 mmHg 36%
01:00 +19°C° 0 mm 1 m/s 714 mmHg 38%
02:00 +18°C° 0 mm 1 m/s 714 mmHg 39%
03:00 +16°C° 0 mm 1 m/s 714 mmHg 41%
04:00 +16°C° 0 mm 1 m/s 714 mmHg 43%
05:00 +15°C° 0 mm 1 m/s 713 mmHg 45%
06:00 +18°C° 0 mm 1 m/s 714 mmHg 39%
07:00 +20°C° 0 mm 1 m/s 715 mmHg 34%
08:00 +23°C° 0 mm 1 m/s 715 mmHg 29%
09:00 +25°C° 0 mm 1 m/s 715 mmHg 25%
10:00 +28°C° 0 mm 1 m/s 715 mmHg 21%
11:00 +31°C° 0 mm 2 m/s 715 mmHg 17%
12:00 +32°C° 0 mm 2 m/s 714 mmHg 16%
13:00 +34°C° 0 mm 2 m/s 713 mmHg 16%
14:00 +34°C° 0 mm 2 m/s 712 mmHg 16%
15:00 +34°C° 0 mm 2 m/s 712 mmHg 17%
16:00 +32°C° 0 mm 2 m/s 712 mmHg 18%
17:00 +31°C° 0 mm 2 m/s 711 mmHg 20%
18:00 +28°C° 0 mm 2 m/s 712 mmHg 26%
19:00 +26°C° 0 mm 1 m/s 712 mmHg 32%
20:00 +21°C° 0 mm 0 m/s 712 mmHg 38%
21:00 +20°C° 0 mm 0 m/s 713 mmHg 40%
22:00 +21°C° 0 mm 1 m/s 713 mmHg 41%
23:00 +21°C° 0 mm 1 m/s 713 mmHg 43%

Amanhã, 23 Setembro, Quarta-feira

Tempo Temperatura Precipitação Vento Pressão Humidade
00:00 +20°C° 0 mm 1 m/s 713 mmHg 45%
01:00 +20°C° 0 mm 1 m/s 712 mmHg 46%
02:00 +19°C° 0 mm 1 m/s 712 mmHg 48%
03:00 +19°C° 0 mm 1 m/s 712 mmHg 49%
04:00 +18°C° 0 mm 1 m/s 712 mmHg 51%
05:00 +18°C° 0 mm 1 m/s 712 mmHg 52%
06:00 +20°C° 0 mm 1 m/s 713 mmHg 46%
07:00 +21°C° 0 mm 0 m/s 714 mmHg 40%
08:00 +24°C° 0 mm 0 m/s 715 mmHg 33%
09:00 +28°C° 0 mm 1 m/s 715 mmHg 30%
10:00 +31°C° 0 mm 1 m/s 715 mmHg 27%
11:00 +35°C° 0 mm 2 m/s 715 mmHg 24%
12:00 +36°C° 0 mm 2 m/s 714 mmHg 22%
13:00 +37°C° 0 mm 2 m/s 713 mmHg 20%
14:00 +38°C° 0 mm 3 m/s 712 mmHg 18%
15:00 +38°C° 0 mm 3 m/s 712 mmHg 19%
16:00 +37°C° 0 mm 3 m/s 711 mmHg 19%
17:00 +37°C° 0 mm 3 m/s 711 mmHg 20%
18:00 +34°C° 0 mm 2 m/s 711 mmHg 25%
19:00 +30°C° 0 mm 1 m/s 711 mmHg 30%
20:00 +27°C° 0 mm 1 m/s 712 mmHg 35%
21:00 +26°C° 0 mm 1 m/s 712 mmHg 37%
22:00 +25°C° 0 mm 1 m/s 712 mmHg 40%
23:00 +24°C° 0 mm 1 m/s 712 mmHg 43%

Depois de amanhã, 24 Setembro, Quinta-feira

Tempo Temperatura Precipitação Vento Pressão Humidade
00:00 +23°C° 0 mm 1 m/s 711 mmHg 45%
01:00 +21°C° 0 mm 0 m/s 711 mmHg 48%
02:00 +20°C° 0 mm 0 m/s 710 mmHg 51%
03:00 +19°C° 0 mm 0 m/s 710 mmHg 52%
04:00 +19°C° 0 mm 0 m/s 710 mmHg 53%
05:00 +18°C° 0 mm 0 m/s 710 mmHg 55%
06:00 +21°C° 0 mm 0 m/s 711 mmHg 47%
07:00 +24°C° 0 mm 0 m/s 712 mmHg 40%
08:00 +27°C° 0 mm 0 m/s 712 mmHg 33%
09:00 +32°C° 0 mm 1 m/s 712 mmHg 27%
10:00 +37°C° 0 mm 2 m/s 712 mmHg 22%
11:00 +40°C° 0 mm 3 m/s 712 mmHg 16%
12:00 +42°C° 0 mm 4 m/s 711 mmHg 15%
13:00 +43°C° 0 mm 5 m/s 710 mmHg 14%
14:00 +45°C° 0 mm 5 m/s 709 mmHg 12%
15:00 +44°C° 0 mm 6 m/s 709 mmHg 13%
16:00 +42°C° 0 mm 6 m/s 708 mmHg 13%
17:00 +41°C° 0 mm 6 m/s 708 mmHg 14%
18:00 +37°C° 0 mm 5 m/s 708 mmHg 18%
19:00 +34°C° 0 mm 4 m/s 708 mmHg 22%
20:00 +31°C° 0 mm 3 m/s 708 mmHg 26%
21:00 +29°C° 0 mm 2 m/s 708 mmHg 29%
22:00 +28°C° 0 mm 2 m/s 708 mmHg 32%
23:00 +27°C° 0 mm 1 m/s 708 mmHg 35%

25 Setembro, Sexta-feira

Tempo Temperatura Precipitação Vento Pressão Humidade
00:00 +26°C° 0 mm 1 m/s 708 mmHg 37%
01:00 +25°C° 0 mm 1 m/s 708 mmHg 39%
02:00 +24°C° 0 mm 1 m/s 707 mmHg 40%
03:00 +24°C° 0 mm 1 m/s 707 mmHg 41%
04:00 +24°C° 0 mm 1 m/s 707 mmHg 42%
05:00 +24°C° 0 mm 1 m/s 707 mmHg 43%
06:00 +27°C° 0 mm 2 m/s 707 mmHg 38%
07:00 +29°C° 0 mm 2 m/s 708 mmHg 34%
08:00 +32°C° 0 mm 2 m/s 709 mmHg 29%
09:00 +36°C° 0 mm 3 m/s 708 mmHg 25%
10:00 +40°C° 0 mm 4 m/s 708 mmHg 21%
11:00 +43°C° 0 mm 5 m/s 708 mmHg 17%
12:00 +44°C° 0 mm 6 m/s 707 mmHg 16%
13:00 +45°C° 0 mm 7 m/s 707 mmHg 16%
14:00 +45°C° 0 mm 8 m/s 706 mmHg 15%
15:00 +44°C° 0 mm 8 m/s 705 mmHg 17%
16:00 +43°C° 0 mm 7 m/s 705 mmHg 19%
17:00 +41°C° 0 mm 7 m/s 704 mmHg 20%
18:00 +39°C° 0 mm 6 m/s 704 mmHg 25%
19:00 +36°C° 0 mm 5 m/s 705 mmHg 29%
20:00 +34°C° 0 mm 4 m/s 705 mmHg 33%
21:00 +33°C° 0 mm 4 m/s 705 mmHg 36%
22:00 +31°C° 0 mm 3 m/s 705 mmHg 38%
23:00 +29°C° 0 mm 3 m/s 706 mmHg 41%

26 Setembro, Sábado

Tempo Temperatura Precipitação Vento Pressão Humidade
00:00 +29°C° 0 mm 3 m/s 705 mmHg 42%
01:00 +28°C° 0 mm 3 m/s 705 mmHg 44%
02:00 +28°C° 0 mm 3 m/s 705 mmHg 45%
03:00 +27°C° 0 mm 3 m/s 705 mmHg 47%
04:00 +27°C° 0 mm 3 m/s 705 mmHg 48%
05:00 +27°C° 0 mm 3 m/s 704 mmHg 49%
06:00 +29°C° 0 mm 3 m/s 705 mmHg 45%
07:00 +31°C° 0 mm 3 m/s 706 mmHg 40%
08:00 +34°C° 0 mm 3 m/s 706 mmHg 35%
09:00 +37°C° 0 mm 3 m/s 707 mmHg 31%
10:00 +41°C° 0 mm 4 m/s 707 mmHg 26%
11:00 +43°C° 0 mm 4 m/s 707 mmHg 22%
12:00 +43°C° 0 mm 5 m/s 706 mmHg 22%
13:00 +44°C° 0 mm 6 m/s 706 mmHg 21%
14:00 +44°C° 0 mm 7 m/s 705 mmHg 21%
15:00 +43°C° 0 mm 7 m/s 704 mmHg 23%
16:00 +41°C° 0 mm 6 m/s 704 mmHg 25%
17:00 +40°C° 0 mm 6 m/s 704 mmHg 27%
18:00 +37°C° 0 mm 5 m/s 704 mmHg 33%
19:00 +35°C° 0 mm 4 m/s 705 mmHg 38%
20:00 +31°C° 0 mm 3 m/s 705 mmHg 44%
21:00 +31°C° 0 mm 2 m/s 706 mmHg 47%
22:00 +30°C° 0 mm 2 m/s 706 mmHg 50%
23:00 +29°C° 0 mm 2 m/s 707 mmHg 53%

27 Setembro, Domingo

Tempo Temperatura Precipitação Vento Pressão Humidade
00:00 +28°C° 0 mm 2 m/s 707 mmHg 55%
01:00 +28°C° 0 mm 2 m/s 707 mmHg 57%
02:00 +27°C° 0 mm 2 m/s 707 mmHg 60%
03:00 +26°C° 0 mm 2 m/s 707 mmHg 60%
04:00 +26°C° 0 mm 2 m/s 708 mmHg 61%
05:00 +26°C° 0 mm 1 m/s 708 mmHg 62%
06:00 +26°C° 0 mm 1 m/s 709 mmHg 62%
07:00 +26°C° 0 mm 1 m/s 710 mmHg 61%
08:00 +26°C° 0 mm 1 m/s 710 mmHg 61%
09:00 +27°C° 0.1 mm 1 m/s 711 mmHg 57%
10:00 +28°C° 0.1 mm 2 m/s 711 mmHg 53%
11:00 +29°C° 0.1 mm 2 m/s 711 mmHg 50%
12:00 +28°C° 0.7 mm 1 m/s 710 mmHg 52%
13:00 +28°C° 0.7 mm 1 m/s 709 mmHg 55%
14:00 +27°C° 0.7 mm 1 m/s 708 mmHg 58%
15:00 +28°C° 0 mm 1 m/s 708 mmHg 55%
16:00 +29°C° 0 mm 1 m/s 708 mmHg 52%
17:00 +29°C° 0 mm 1 m/s 707 mmHg 49%
18:00 +28°C° 0 mm 1 m/s 708 mmHg 54%
19:00 +27°C° 0 mm 1 m/s 708 mmHg 60%
20:00 +25°C° 0 mm 1 m/s 709 mmHg 65%
21:00 +25°C° 0 mm 1 m/s 709 mmHg 64%
22:00 +26°C° 0 mm 1 m/s 710 mmHg 63%
23:00 +24°C° 0 mm 0 m/s 710 mmHg 61%
Mostrar mais